sat.trackr.live / text

‹ back to catalog

GEESAT-2 08

NORAD 58912 · 2024-023H

PAYLOAD ACTIVE UNKNOWN

§ Identity

Operator
Country
PRC
Launch date
2024-02-02
Launch site
XICLF
Launch vehicle
Mass (kg)
RCS (m²)

External: N2YO · Heavens-Above · Gunter

§ Orbital elements

Epoch: 2026-09-22T13:59:20.815584Z

Period
97.07 min
Inclination
49.9891°
Eccentricity
0.0004182
Mean motion
14.83449285 rev/d
Perigee alt
615.5 km
Apogee alt
621.4 km
Semi-major
6,996.6 km
B*
1.6568e-4
RAAN
261.9931°
Arg perigee
354.8792°
Mean anomaly
5.2103°
Rev number
14,337

§ Raw data

GEESAT-2 081 58912U 24023H   26265.58287981  .00001150  00000+0  16568-3 0  99902 58912  49.9891 261.9931 0004182 354.8792   5.2103 14.83449285143378

JSON: /api/v1/satellites/58912 · /tle

For live sub-satellite position, see the globe view (requires WebGL).

§ Visibility from observer

Set your observer location to see the next 7 days of passes ≥ 10°. The values pass through the URL so the page stays shareable.

No JS? Fill the form by hand. The geolocation button needs JavaScript.